RYR76GA LFBH-EGSS

Flight info

Callsign RYR76GA
Flight time 1h 7m
Altitude 34000
Route LUSON A25 TIRAV UT501 USODA UM184 DIKRO UM185 ADLOG/N0359F240 M185 TELTU
Aircraft B738/M-SDE2E3FGHIRWXY/LB1

Departure

Time 2026-05-04 17:49
Airport La Rochelle Île de Ré Airport (LFBH)

Arrival

Time 2026-05-04 18:56
Airport London Stansted Airport (EGSS)
Time Latitude Longitude Altitude Speed Heading
2026-05-04 17:17 46.17658 -1.19383 65 ft 0 kts 318°
2026-05-04 17:40 46.17659 -1.19383 92 ft 1 kts 318°
2026-05-04 17:40 46.17674 -1.19404 57 ft 5 kts 310°
2026-05-04 17:40 46.17693 -1.19481 62 ft 11 kts 286°
2026-05-04 17:40 46.17755 -1.19527 64 ft 11 kts 359°
2026-05-04 17:41 46.17752 -1.19528 62 ft 1 kts
2026-05-04 17:41 46.17774 -1.19527 66 ft 0 kts
2026-05-04 17:44 46.17787 -1.19526 64 ft 6 kts
2026-05-04 17:44 46.17826 -1.19524 70 ft 10 kts
2026-05-04 17:44 46.17898 -1.19508 65 ft 12 kts 37°
2026-05-04 17:45 46.17917 -1.19373 69 ft 18 kts 91°
2026-05-04 17:45 46.17911 -1.19163 62 ft 23 kts 93°
2026-05-04 17:45 46.17904 -1.18934 67 ft 23 kts 92°
2026-05-04 17:45 46.17895 -1.18639 64 ft 22 kts 93°
2026-05-04 17:46 46.17889 -1.18425 72 ft 21 kts 92°
2026-05-04 17:46 46.17885 -1.18307 73 ft 14 kts 97°
2026-05-04 17:46 46.17872 -1.18217 66 ft 3 kts 27°
2026-05-04 17:46 46.17881 -1.18228 73 ft 2 kts 296°
2026-05-04 17:47 46.17884 -1.18261 68 ft 5 kts 273°
2026-05-04 17:47 46.17884 -1.18263 69 ft 0 kts 273°
2026-05-04 17:48 46.17885 -1.18283 69 ft 6 kts 272°
2026-05-04 17:48 46.17897 -1.18655 64 ft 78 kts 273°
2026-05-04 17:48 46.17928 -1.19821 88 ft 147 kts 272°
2026-05-04 17:48 46.17941 -1.21428 595 ft 169 kts 274°
2026-05-04 17:49 46.18142 -1.23169 1418 ft 179 kts 288°
2026-05-04 17:49 46.18683 -1.24804 2278 ft 184 kts 303°
2026-05-04 17:49 46.19622 -1.26186 2659 ft 209 kts 336°
2026-05-04 17:49 46.21102 -1.26597 3129 ft 223 kts 353°
2026-05-04 17:50 46.22707 -1.26876 3567 ft 245 kts 352°
2026-05-04 17:50 46.24450 -1.27251 4254 ft 259 kts 351°
2026-05-04 17:50 46.26217 -1.27689 5352 ft 256 kts 350°
2026-05-04 17:50 46.27969 -1.28164 6378 ft 256 kts 349°
2026-05-04 17:51 46.29747 -1.28674 7150 ft 266 kts 349°
2026-05-04 17:51 46.31588 -1.29226 7959 ft 272 kts 348°
2026-05-04 17:51 46.33450 -1.29799 8682 ft 281 kts 348°
2026-05-04 17:51 46.35378 -1.30403 9549 ft 287 kts 349°
2026-05-04 17:52 46.37354 -1.31030 10268 ft 296 kts 349°
2026-05-04 17:52 46.39448 -1.31697 10536 ft 321 kts 348°
2026-05-04 17:52 46.41686 -1.32415 11032 ft 335 kts 348°
2026-05-04 17:52 46.43995 -1.33160 11729 ft 343 kts 348°
2026-05-04 17:53 46.46346 -1.33919 12474 ft 348 kts 347°
2026-05-04 17:53 46.48726 -1.34687 13311 ft 351 kts 347°
2026-05-04 17:53 46.51117 -1.35484 14076 ft 356 kts 345°
2026-05-04 17:53 46.53522 -1.36451 14765 ft 360 kts 343°
2026-05-04 17:54 46.55945 -1.37466 15477 ft 364 kts 343°
2026-05-04 17:54 46.58405 -1.38475 16120 ft 371 kts 345°
2026-05-04 17:54 46.60969 -1.39065 16780 ft 376 kts 357°
2026-05-04 17:54 46.63600 -1.38998 17499 ft 380 kts
2026-05-04 17:55 46.66257 -1.38787 18179 ft 385 kts
2026-05-04 17:55 46.68949 -1.38553 18761 ft 390 kts
2026-05-04 17:55 46.71671 -1.38324 19346 ft 394 kts
2026-05-04 17:55 46.74427 -1.38108 19926 ft 399 kts
2026-05-04 17:56 46.77211 -1.37901 20501 ft 403 kts
2026-05-04 17:56 46.80033 -1.37700 21067 ft 408 kts
2026-05-04 17:56 46.82881 -1.37501 21627 ft 412 kts
2026-05-04 17:56 46.85757 -1.37301 22184 ft 416 kts
2026-05-04 17:57 46.88667 -1.37098 22724 ft 421 kts
2026-05-04 17:57 46.91604 -1.36893 23261 ft 425 kts
2026-05-04 17:57 46.94571 -1.36685 23745 ft 429 kts
2026-05-04 17:57 46.97567 -1.36498 24171 ft 433 kts
2026-05-04 17:58 47.00590 -1.36563 24607 ft 436 kts 358°
2026-05-04 17:58 47.03632 -1.36753 25021 ft 440 kts 357°
2026-05-04 17:58 47.06707 -1.36989 25431 ft 444 kts 356°
2026-05-04 17:58 47.09803 -1.37230 25836 ft 448 kts 357°
2026-05-04 17:59 47.12931 -1.37462 26228 ft 452 kts 357°
2026-05-04 17:59 47.16083 -1.37682 26618 ft 455 kts 357°
2026-05-04 17:59 47.22461 -1.38098 27407 ft 462 kts 358°
2026-05-04 18:00 47.25638 -1.38299 27769 ft 465 kts 358°
2026-05-04 18:00 47.28887 -1.38504 28121 ft 469 kts 358°
2026-05-04 18:00 47.32164 -1.38711 28479 ft 473 kts 358°
2026-05-04 18:00 47.35462 -1.38920 28832 ft 476 kts 358°
2026-05-04 18:01 47.38782 -1.39131 29181 ft 479 kts 358°
2026-05-04 18:01 47.42126 -1.39344 29571 ft 481 kts 358°
2026-05-04 18:01 47.45472 -1.39558 30035 ft 481 kts 358°
2026-05-04 18:02 47.52134 -1.39986 30997 ft 476 kts 358°
2026-05-04 18:02 47.55429 -1.40197 31543 ft 472 kts 358°
2026-05-04 18:02 47.58704 -1.40408 32022 ft 470 kts 358°
2026-05-04 18:02 47.61961 -1.40617 32511 ft 467 kts 358°
2026-05-04 18:03 47.65194 -1.40825 33002 ft 464 kts 358°
2026-05-04 18:03 47.68406 -1.41032 33478 ft 461 kts 358°
2026-05-04 18:03 47.71604 -1.41240 33919 ft 459 kts 358°
2026-05-04 18:03 47.74814 -1.41467 33933 ft 465 kts 357°
2026-05-04 18:04 47.81283 -1.41965 33951 ft 462 kts 357°
2026-05-04 18:05 47.90812 -1.42697 33971 ft 457 kts 357°
2026-05-04 18:05 47.97176 -1.43180 33967 ft 459 kts 357°
2026-05-04 18:06 48.06772 -1.43899 33970 ft 461 kts 358°
2026-05-04 18:06 48.13187 -1.44353 33967 ft 462 kts 358°
2026-05-04 18:07 48.19565 -1.44803 33961 ft 462 kts 358°
2026-05-04 18:07 48.25986 -1.45261 33965 ft 462 kts 358°
2026-05-04 18:08 48.32402 -1.45721 33971 ft 461 kts 358°
2026-05-04 18:08 48.38815 -1.46183 33968 ft 461 kts 358°
2026-05-04 18:09 48.51606 -1.47106 33976 ft 459 kts 358°
2026-05-04 18:10 48.57984 -1.47568 33977 ft 459 kts 358°
2026-05-04 18:10 48.64360 -1.48032 33973 ft 459 kts 358°
2026-05-04 18:11 48.70739 -1.48497 33978 ft 458 kts 357°
2026-05-04 18:11 48.77112 -1.48962 33981 ft 459 kts 357°
2026-05-04 18:12 48.83488 -1.49429 33986 ft 459 kts 357°
2026-05-04 18:12 48.89865 -1.49365 33981 ft 458 kts
2026-05-04 18:13 48.92968 -1.48357 33978 ft 456 kts 20°
2026-05-04 18:13 48.95954 -1.46753 33992 ft 455 kts 22°
2026-05-04 18:14 49.04839 -1.41605 33983 ft 456 kts 23°
2026-05-04 18:14 49.10783 -1.38213 33986 ft 456 kts 22°
2026-05-04 18:15 49.22699 -1.31495 33972 ft 456 kts 22°
2026-05-04 18:16 49.28644 -1.28133 33990 ft 456 kts 22°
2026-05-04 18:16 49.34587 -1.24760 33997 ft 455 kts 22°
2026-05-04 18:17 49.43492 -1.19691 33993 ft 455 kts 22°
2026-05-04 18:18 49.52388 -1.14606 33990 ft 454 kts 22°
2026-05-04 18:18 49.58214 -1.11056 33986 ft 452 kts 30°
2026-05-04 18:19 49.65753 -1.02598 33991 ft 446 kts 41°
2026-05-04 18:19 49.70611 -0.96744 33790 ft 438 kts 40°
2026-05-04 18:20 49.73035 -0.93948 33479 ft 432 kts 36°
2026-05-04 18:20 49.75691 -0.91779 33107 ft 431 kts 24°
2026-05-04 18:20 49.78528 -0.90350 32740 ft 429 kts 14°
2026-05-04 18:20 49.81467 -0.89679 32383 ft 425 kts
2026-05-04 18:21 49.84404 -0.89301 32018 ft 422 kts
2026-05-04 18:21 49.87326 -0.88953 31649 ft 419 kts
2026-05-04 18:21 49.90225 -0.88588 31292 ft 416 kts
2026-05-04 18:21 49.93095 -0.88198 30937 ft 413 kts
2026-05-04 18:22 49.95966 -0.87788 30594 ft 415 kts
2026-05-04 18:22 49.98841 -0.87371 30242 ft 414 kts
2026-05-04 18:22 50.01702 -0.86958 29850 ft 412 kts
2026-05-04 18:22 50.04541 -0.86555 29437 ft 409 kts
2026-05-04 18:23 50.07361 -0.86158 29075 ft 404 kts
2026-05-04 18:23 50.10148 -0.85765 28705 ft 401 kts
2026-05-04 18:23 50.12910 -0.85375 28343 ft 397 kts
2026-05-04 18:23 50.15650 -0.84987 27966 ft 394 kts
2026-05-04 18:24 50.18367 -0.84601 27619 ft 390 kts
2026-05-04 18:24 50.21063 -0.84218 27260 ft 387 kts
2026-05-04 18:24 50.23730 -0.83838 26910 ft 384 kts
2026-05-04 18:24 50.26384 -0.83460 26557 ft 381 kts
2026-05-04 18:25 50.29020 -0.83084 26202 ft 379 kts
2026-05-04 18:25 50.31634 -0.82710 25854 ft 376 kts
2026-05-04 18:25 50.34234 -0.82336 25511 ft 374 kts
2026-05-04 18:25 50.36822 -0.81959 25169 ft 373 kts
2026-05-04 18:26 50.39408 -0.81580 24830 ft 374 kts
2026-05-04 18:26 50.42000 -0.81199 24479 ft 374 kts
2026-05-04 18:26 50.44580 -0.80821 24133 ft 372 kts
2026-05-04 18:26 50.47147 -0.80444 23785 ft 370 kts
2026-05-04 18:27 50.49705 -0.80068 23407 ft 368 kts
2026-05-04 18:27 50.52249 -0.79694 23008 ft 366 kts
2026-05-04 18:27 50.54778 -0.79322 22638 ft 363 kts
2026-05-04 18:27 50.57250 -0.78958 22295 ft 360 kts
2026-05-04 18:28 50.59735 -0.78591 21952 ft 357 kts
2026-05-04 18:28 50.62199 -0.78228 21613 ft 354 kts
2026-05-04 18:28 50.64676 -0.77870 21265 ft 351 kts
2026-05-04 18:28 50.67065 -0.77527 20944 ft 348 kts
2026-05-04 18:29 50.69470 -0.77181 20603 ft 346 kts
2026-05-04 18:29 50.71889 -0.76833 20279 ft 343 kts
2026-05-04 18:29 50.74224 -0.76496 19954 ft 340 kts
2026-05-04 18:29 50.76575 -0.76156 19625 ft 338 kts
2026-05-04 18:30 50.81214 -0.75349 19037 ft 331 kts 14°
2026-05-04 18:30 50.83356 -0.74190 19010 ft 320 kts 23°
2026-05-04 18:30 50.85384 -0.72877 18990 ft 310 kts 24°
2026-05-04 18:31 50.87338 -0.71589 18979 ft 298 kts 24°
2026-05-04 18:31 50.89214 -0.70354 18977 ft 285 kts 24°
2026-05-04 18:31 50.91008 -0.69178 18979 ft 274 kts 24°
2026-05-04 18:31 50.92746 -0.68042 18982 ft 267 kts 23°
2026-05-04 18:32 50.94480 -0.66912 19004 ft 274 kts 23°
2026-05-04 18:32 50.96282 -0.65738 19015 ft 289 kts 23°
2026-05-04 18:32 50.97544 -0.64916 19042 ft 304 kts 23°
2026-05-04 18:32 50.99577 -0.63594 19036 ft 326 kts 23°
2026-05-04 18:33 51.01695 -0.62218 19009 ft 331 kts 23°
2026-05-04 18:33 51.03825 -0.60836 19011 ft 330 kts 23°
2026-05-04 18:33 51.05954 -0.59455 19000 ft 330 kts 23°
2026-05-04 18:33 51.08069 -0.58081 19005 ft 329 kts 23°
2026-05-04 18:34 51.10187 -0.56704 19003 ft 328 kts 23°
2026-05-04 18:34 51.12299 -0.55329 19008 ft 328 kts 23°
2026-05-04 18:34 51.14411 -0.53953 19011 ft 328 kts 23°
2026-05-04 18:34 51.16522 -0.52576 19019 ft 328 kts 23°
2026-05-04 18:35 51.18633 -0.51197 19020 ft 328 kts 23°
2026-05-04 18:35 51.20750 -0.49813 19014 ft 329 kts 23°
2026-05-04 18:35 51.22855 -0.48436 18927 ft 325 kts 23°
2026-05-04 18:35 51.24941 -0.47070 18652 ft 323 kts 23°
2026-05-04 18:36 51.27021 -0.45706 18278 ft 324 kts 23°
2026-05-04 18:36 51.29103 -0.44339 17870 ft 323 kts 23°
2026-05-04 18:36 51.31180 -0.42975 17528 ft 321 kts 23°
2026-05-04 18:36 51.33239 -0.41621 17215 ft 318 kts 23°
2026-05-04 18:37 51.35293 -0.40268 16738 ft 322 kts 22°
2026-05-04 18:37 51.37352 -0.38912 16468 ft 318 kts 22°
2026-05-04 18:37 51.39380 -0.37575 16254 ft 313 kts 22°
2026-05-04 18:37 51.41378 -0.36257 16108 ft 309 kts 22°
2026-05-04 18:38 51.43348 -0.34955 16040 ft 305 kts 23°
2026-05-04 18:38 51.45295 -0.33555 16029 ft 308 kts 25°
2026-05-04 18:38 51.47273 -0.32045 15581 ft 318 kts 26°
2026-05-04 18:38 51.49270 -0.30498 15293 ft 319 kts 26°
2026-05-04 18:39 51.51256 -0.28959 15037 ft 314 kts 26°
2026-05-04 18:39 51.53209 -0.27450 14799 ft 310 kts 25°
2026-05-04 18:39 51.55139 -0.25964 14553 ft 305 kts 25°
2026-05-04 18:39 51.57047 -0.24496 14324 ft 302 kts 25°
2026-05-04 18:40 51.58936 -0.23043 14119 ft 301 kts 24°
2026-05-04 18:40 51.60820 -0.21593 13892 ft 299 kts 24°
2026-05-04 18:40 51.62696 -0.20150 13643 ft 298 kts 25°
2026-05-04 18:40 51.64564 -0.18713 13397 ft 297 kts 25°
2026-05-04 18:41 51.66428 -0.17276 13159 ft 298 kts 24°
2026-05-04 18:41 51.68300 -0.15833 12932 ft 299 kts 25°
2026-05-04 18:41 51.70174 -0.14388 12700 ft 299 kts 24°
2026-05-04 18:41 51.72055 -0.12934 12473 ft 300 kts 24°
2026-05-04 18:42 51.73937 -0.11479 12239 ft 300 kts 24°
2026-05-04 18:42 51.75827 -0.10038 11999 ft 301 kts 23°
2026-05-04 18:42 51.77746 -0.08678 11771 ft 302 kts 22°
2026-05-04 18:42 51.79679 -0.07341 11532 ft 301 kts 21°
2026-05-04 18:43 51.81601 -0.06014 11302 ft 299 kts 21°
2026-05-04 18:43 51.83502 -0.04693 11070 ft 296 kts 21°
2026-05-04 18:43 51.85385 -0.03379 10817 ft 293 kts 21°
2026-05-04 18:43 51.87246 -0.02074 10603 ft 291 kts 22°
2026-05-04 18:44 51.89096 -0.00775 10377 ft 289 kts 21°
2026-05-04 18:44 51.90313 0.00081 10224 ft 288 kts 21°
2026-05-04 18:44 51.92750 0.01796 9916 ft 283 kts 21°
2026-05-04 18:44 51.94543 0.03059 9676 ft 279 kts 21°
2026-05-04 18:45 51.96312 0.04308 9447 ft 275 kts 21°
2026-05-04 18:45 51.98106 0.05094 9295 ft 260 kts 355°
2026-05-04 18:45 51.99732 0.04226 9029 ft 244 kts 319°
2026-05-04 18:45 52.00650 0.02003 8693 ft 240 kts 281°
2026-05-04 18:46 52.00622 -0.00668 8443 ft 237 kts 257°
2026-05-04 18:46 51.99815 -0.02948 8158 ft 238 kts 223°
2026-05-04 18:46 51.98332 -0.04166 7854 ft 243 kts 194°
2026-05-04 18:46 51.96645 -0.04210 7589 ft 247 kts 172°
2026-05-04 18:47 51.95005 -0.03507 7329 ft 247 kts 166°
2026-05-04 18:47 51.93336 -0.02655 6971 ft 251 kts 165°
2026-05-04 18:47 51.91657 -0.01808 6487 ft 260 kts 165°
2026-05-04 18:47 51.89876 -0.00929 5980 ft 268 kts 166°
2026-05-04 18:48 51.88089 -0.00063 5496 ft 275 kts 165°
2026-05-04 18:48 51.86275 0.00716 5374 ft 264 kts 175°
2026-05-04 18:48 51.84502 0.00535 5282 ft 250 kts 192°
2026-05-04 18:48 51.82816 0.00092 5209 ft 241 kts 191°
2026-05-04 18:49 51.81181 -0.00332 5064 ft 236 kts 191°
2026-05-04 18:49 51.79563 -0.00764 4751 ft 238 kts 191°
2026-05-04 18:49 51.77931 -0.01228 4506 ft 237 kts 190°
2026-05-04 18:49 51.76316 -0.01705 4239 ft 236 kts 191°
2026-05-04 18:50 51.74687 -0.02073 3938 ft 237 kts 177°
2026-05-04 18:50 51.73139 -0.01294 3648 ft 235 kts 143°
2026-05-04 18:50 51.72110 0.00666 3372 ft 229 kts 110°
2026-05-04 18:50 51.71913 0.03139 3119 ft 223 kts 77°
2026-05-04 18:51 51.72587 0.05329 2822 ft 221 kts 45°
2026-05-04 18:51 51.73908 0.06521 2629 ft 218 kts 14°
2026-05-04 18:51 51.75370 0.06905 2541 ft 207 kts 11°
2026-05-04 18:51 51.76739 0.07251 2500 ft 190 kts 12°
2026-05-04 18:52 51.77934 0.07801 2482 ft 168 kts 36°
2026-05-04 18:52 51.78778 0.08951 2481 ft 154 kts 40°
2026-05-04 18:52 51.79573 0.10066 2496 ft 151 kts 42°
2026-05-04 18:52 51.80360 0.11227 2372 ft 155 kts 43°
2026-05-04 18:53 51.81150 0.12413 2149 ft 155 kts 43°
2026-05-04 18:53 51.81919 0.13572 1943 ft 152 kts 42°
2026-05-04 18:53 51.82675 0.14710 1751 ft 144 kts 43°
2026-05-04 18:53 51.83391 0.15791 1544 ft 139 kts 41°
2026-05-04 18:54 51.84085 0.16835 1357 ft 135 kts 42°
2026-05-04 18:54 51.84796 0.17906 1171 ft 143 kts 41°
2026-05-04 18:54 51.85527 0.19008 956 ft 144 kts 42°
2026-05-04 18:54 51.86252 0.20097 738 ft 141 kts 42°
2026-05-04 18:55 51.86961 0.21172 558 ft 138 kts 40°
2026-05-04 18:55 51.88320 0.23212 336 ft 110 kts 42°
2026-05-04 18:55 51.88726 0.23820 339 ft 52 kts 44°
2026-05-04 18:56 51.88866 0.24161 348 ft 30 kts 70°
2026-05-04 18:56 51.88916 0.24417 349 ft 16 kts 74°
2026-05-04 18:56 51.88917 0.24561 353 ft 12 kts 64°
2026-05-04 18:56 51.88967 0.24668 353 ft 12 kts 45°
2026-05-04 18:57 51.89028 0.24757 351 ft 12 kts 42°
2026-05-04 18:57 51.89087 0.24842 356 ft 11 kts 42°
2026-05-04 18:57 51.89143 0.24928 351 ft 11 kts 44°
2026-05-04 18:57 51.89197 0.25012 351 ft 11 kts 46°
2026-05-04 18:58 51.89244 0.25122 360 ft 14 kts 58°
2026-05-04 18:58 51.89316 0.25261 356 ft 17 kts 43°
2026-05-04 18:58 51.89398 0.25384 351 ft 11 kts 44°
2026-05-04 18:58 51.89407 0.25495 353 ft 12 kts 121°
2026-05-04 18:59 51.89335 0.25625 351 ft 18 kts 134°
2026-05-04 18:59 51.89251 0.25768 351 ft 10 kts 133°
2026-05-04 18:59 51.89196 0.25791 360 ft 10 kts 223°
2026-05-04 18:59 51.89182 0.25768 351 ft 1 kts 225°
2026-05-04 19:00 51.89172 0.25752 357 ft 4 kts 224°
2026-05-04 19:00 51.89163 0.25740 357 ft 0 kts 223°